168P/Hergenrother (2005)

Japanese version
Home page
Updated on April 23, 2006

---------------------------------------------------------------------

* Profile

Designation 168P/2005 N2
Recovery Date July 4, 2005
Magnitude 20.3 mag
Recoverer D. Herald, Kambah (near Canberra, A.C.T.)

* Pictures

* Orbital Elements

Epoch 2005 Nov. 6.0 TT = JDT 2453680.5
T 2005 Nov. 2.48108 TT                                  MPC
q   1.4257730            (2000.0)            P               Q
n   0.14235383     Peri.   13.87837     +0.98257480     -0.18447068
a   3.6326477      Node   356.50303     +0.11390893     +0.69434279
e   0.6075113      Incl.   21.89409     +0.14687245     +0.69559949
P   6.92

* Finding Charts

* Magnitudes Graph

        m1 = 15.5 + 5 log d + 10.0 log r

---------------------------------------------------------------------

The orbital elements are published on M.P.E.C. 2005-N28.
The charts are made with StellaNavigator Ver.2.0 for Windows (AstroArts / ASCII).
The magnitudes graphs are made with Comet for Windows.

---------------------------------------------------------------------

Copyright(C) Seiichi Yoshida (comet@aerith.net). All rights reserved.